Tracking 19164 objects as of 20-May-2018
HD Live streaming from Space Station
objects crossing your sky now

FENGYUN 1C DEB

Track FENGYUN 1C DEB now!
10-day predictions


NORAD ID: 29750
Int'l Code: 1999-025AQ
Perigee: 847.8 km
Apogee: 902.3 km
Inclination: 99.1 °
Period: 102.3 minutes
Semi major axis: 7246 km
RCS: 0.036 m2 (small)
Launch date: May 10, 1999
Source: People's Republic of China (PRC)
Launch site: Taiyaun Space Center, China (TSC)

Note: This is SATELLITE DEBRIS
aabbcc
Your satellite tracking list
Your tracking list is empty




NASA's NSSDC Master Catalog

Two Line Element Set (TLE):
1 29750U 99025AQ  18140.62468766 -.00000100 +00000-0 -32406-4 0  9999
2 29750 099.0723 165.0590 0037603 136.8615 344.3691 14.07511355581860
Source of the keplerian elements: AFSPC